Retour au catalogue

STARLINK-33892

ActifCommunicationsVLEO
NORAD 63783·PAYLOAD·🇺🇸 United States

Lancé May 2, 2025 depuis Cape Canaveral Space Force Station

Loading…

Prochains Passages (prochaines 24 heures)

TLE

FraisSource: CelesTrak SupGP

Époque: Sep 15, 2026, 02:30 UTC

1 63783C 25091J   26258.10465278 -.00023597  00000+0 -85446-3 0  2585
2 63783  43.0038  62.8128 0001787 273.5490 341.5323 15.27598928    15

Suivez STARLINK-33892 en temps réel avec AllMySat

Download on the App Store